Simultaneous Nadir Overpasses (SNOs) Predictions

Prediction of SNOs between AQUA and METOP-B Satellite Orbit:

Table of predicted SNOs for the next 14.0 days since TLE Epoch: 3/13/2016
Index Date (AQUA) Time (AQUA) Lat,Lon (AQUA) SZA (AQUA ) Date (METOP-B) Time (METOP-B) Lat,Lon (METOP-B) SZA (METOP-B ) Distance(km) Time Diff (sec)
1 03/14/2016 16:02:11 -73.76, 113.87 104.00 03/14/2016 16:00:58 -73.74, 113.43 103.99 13.88 73
2 03/14/2016 16:51:42 73.94, -78.89 76.19 03/14/2016 16:51:34 73.93, -78.78 76.17 3.49 8
3 03/14/2016 17:41:08 -73.96, 88.70 103.81 03/14/2016 17:42:15 -73.96, 88.63 103.82 2.44 67
4 03/17/2016 11:36:29 -73.86,-179.91 105.01 03/17/2016 11:35:15 -73.82,-179.97 105.03 4.42 74
5 03/17/2016 12:25:58 73.94, -12.45 75.06 03/17/2016 12:25:53 73.91, -12.43 75.03 3.48 5
6 03/17/2016 13:15:25 -74.01, 155.03 104.88 03/17/2016 13:16:33 -73.99, 155.11 104.91 2.74 68
7 03/20/2016 07:10:46 -73.87,-113.51 106.12 03/20/2016 07:09:34 -73.85,-113.49 106.13 2.64 72
8 03/20/2016 08:00:14 73.91, 54.05 73.91 03/20/2016 08:00:12 73.93, 54.04 73.94 2.87 2
9 03/20/2016 08:49:41 -73.97,-138.45 106.04 03/20/2016 08:50:53 -73.97,-138.53 106.04 2.46 72
10 03/23/2016 02:45:02 -73.86, -47.04 107.25 03/23/2016 02:43:53 -73.87, -47.02 107.22 1.93 69
11 03/23/2016 03:34:31 73.95, 120.39 72.84 03/23/2016 03:34:31 73.95, 120.50 72.84 3.20 0
12 03/23/2016 04:23:58 -74.01, -72.10 107.12 03/23/2016 04:25:11 -74.05, -71.94 107.09 6.55 73
13 03/25/2016 22:19:17 -73.87, 19.38 108.36 03/25/2016 22:18:12 -73.85, 19.31 108.36 2.96 65
14 03/25/2016 23:08:45 73.91,-173.08 71.68 03/25/2016 23:08:50 73.92,-173.18 71.69 3.15 5




NCC Satellite Simultaneous Nadir Overpasses (SNOs) Prediction Service
